Location: Stilling
(56.0622°N, 9.9882°E)
Time: 13:10:04
(UTC+00:00)

Cosmos 1340 - Pass Details

Date: 13 July 2020
Orbit: 502 x 504 km, 81.2° (Epoch: 07 August)

Event Time Altitude Azimuth Distance (km) Brightness Sun altitude
Exits shadow 22:37:57 11° 210° (SSW) 1,678 4.9 -11.6°
Maximum altitude 22:41:33 54° 289° (WNW) 620 3.2 -11.7°
Drops below altitude 10° 22:45:17 10° 7° (N) 1,730 6.7 -11.8°
Sets 22:47:27 0° 13° (NNE) 2,620 7.7 -11.9°
